Terminal Aerodrome Forecast
Issued by NWS Sterling, VA

Current Version | Previous Version | Graphics & Text | Print | Product List | Glossary On
Versions: 1 2 3 4 5 6 7 8 9 10 11 12 13 14 15 16 17 18 19 20 21 22 23
000
FTUS41 KLWX 270901 AAA
TAFIAD
TAF AMD
KIAD 270901Z 2709/2812 VRB03KT P6SM SCT050
     FM271400 32005KT P6SM SCT050
     FM272300 VRB03KT P6SM SCT050=

USA.gov is the U.S. government's official web portal to all federal, state and local government web resources and services.